This demonstration page uses our WeatherBlox Daily Observations layout. Learn more.

Left ArrowRight Arrow

34.02893, -84.19858

Hourly Observations for July 1, 2022

Temp ( °F °C ) Dew Point ( °F °C ) Humidity (%) Winds ( mph kmh ) Pressure ( in mb ) Visibility ( mi km ) Precip ( " mm )
12:53 am 00:53 Partly Cloudy 72 22.2 70 21.1 94 94 Calm 30.11 1020 10 16 0.00 0.00
1:53 am 01:53 Partly Cloudy 74 23.3 69 20.6 85 85 Calm 30.10 1019 10 16 0.00 0.00
2:53 am 02:53 Clear 74 23.3 69 20.6 85 85 Calm 30.09 1019 10 16 0.00 0.00
3:53 am 03:53 Mostly Clear 72 22.2 69 20.6 91 91 Calm 30.07 1018 10 16 0.00 0.00
4:53 am 04:53 Mostly Cloudy 73 22.8 70 21.1 90 90 Calm 30.07 1018 10 16 0.00 0.00
5:53 am 05:53 Partly Cloudy 73 22.8 69 20.6 87 87 Calm 30.08 1019 10 16 0.00 0.00
6:53 am 06:53 Mostly Sunny 72 22.2 69 20.6 91 91 undefined N/A 30.10 1019 10 16 0.00 0.00
7:53 am 07:53 Mostly Cloudy 74 23.3 70 21.1 88 88 Calm 30.11 1020 10 16 0.00 0.00
8:02 am 08:02 Mostly Cloudy 74 23.3 70 21.1 88 88 Calm 30.13 1020 10 16 0.00 0.00
8:53 am 08:53 Cloudy 75 23.9 70 21.1 84 84 Calm 30.12 1020 10 16 0.00 0.00
9:25 am 09:25 Cloudy 75 23.9 70 21.1 84 84 VRB 3 6 30.14 1021 10 16 0.00 0.00
9:42 am 09:42 Cloudy 76 24.4 70 21.1 82 82 VRB 3 6 30.14 1021 10 16 0.00 0.00
9:53 am 09:53 Cloudy 76 24.4 70 21.1 82 82 Calm 30.13 1020 10 16 0.00 0.00
10:53 am 10:53 Cloudy 78 25.6 70 21.1 76 76 Calm 30.12 1020 10 16 0.00 0.00
11:37 am 11:37 Cloudy with Thunderstorms 78 25.6 70 21.1 76 76 N 10 17 30.12 1020 10 16 0.00 0.00
11:50 am 11:50 Mostly Cloudy with Nearby Thunderstorms 77 25 70 21 79 79 N 8 13 30.12 1020 10 16 0.00 0.00
11:53 am 11:53 Mostly Cloudy with Nearby Thunderstorms 77 25 69 20.6 77 77 NNE 8 13 30.12 1020 10 16 0.00 0.00
12:36 pm 12:36 Mostly Cloudy with Thunderstorms 74 23.3 71 21.7 91 91 Calm 30.12 1020 5 8 0.01 0.25
12:53 pm 12:53 Cloudy with Nearby Thunderstorms 73 22.8 71 21.7 94 94 SE 5 7 30.12 1020 7 11 0.01 0.25
1:11 pm 13:11 Mostly Cloudy with Nearby Thunderstorms 73 22.8 72 22.2 96 96 SSE 3 6 30.11 1020 9 14 0.00 0.00
1:20 pm 13:20 Partly Cloudy 73 22.8 71 21.7 94 94 Calm 30.10 1019 10 16 0.00 0.00
1:32 pm 13:32 Mostly Cloudy with Nearby Thunderstorms 74 23.3 72 22.2 94 94 SE 3 6 30.10 1019 8 13 0.01 0.25
1:50 pm 13:50 Cloudy with Light Rain 73 23 72 22 94 94 S 3 6 30.10 1019 9 14 0.01 0.25
1:53 pm 13:53 Mostly Cloudy 75 23.9 72 22.2 90 90 SSW 3 6 30.10 1019 10 16 0.01 0.25
2:53 pm 14:53 Sunny 82 27.8 71 21.7 69 69 VRB 5 7 30.05 1018 10 16 0.00 0.00
3:53 pm 15:53 Mostly Sunny 80 26.7 72 22.2 76 76 VRB 3 6 30.04 1017 10 16 0.00 0.00
4:53 pm 16:53 Sunny 83 28.3 72 22.2 70 70 SSE 6 9 30.02 1017 10 16 0.00 0.00
5:53 pm 17:53 Sunny 84 28.9 70 21.1 63 63 SSE 3 6 30.00 1016 10 16 0.00 0.00
6:53 pm 18:53 Sunny 84 28.9 69 20.6 61 61 S 7 11 30.00 1016 10 16 0.00 0.00
7:53 pm 19:53 Sunny 82 27.8 67 19.4 60 60 S 3 6 30.00 1016 10 16 0.00 0.00
8:53 pm 20:53 Clear 78 25.6 69 20.6 74 74 SSE 3 6 30.02 1017 10 16 0.00 0.00
9:53 pm 21:53 Clear 76 24.4 70 21.1 82 82 S 3 6 30.04 1017 10 16 0.00 0.00
10:53 pm 22:53 Mostly Clear 75 23.9 70 21.1 84 84 Calm 30.04 1017 10 16 0.00 0.00
11:53 pm 23:53 Mostly Clear 74 23.3 70 21.1 88 88 Calm 30.04 1017 10 16 0.00 0.00

Powered by AerisWeather